Home > Weather > Vancouver > Past weeks

Flag for Canada Past Weather in Vancouver, British Columbia, Canada — Yesterday and Last 2 Weeks

Now
75 °F

Sunny.


Feels Like: 77 °F
Forecast: 60 / 81 °F
Wind: 12 mph from Northwest

Location: Vancouver International Airport

Current Time: Jul 27, 2016 at 4:03:12 PM

Latest Report: Jul 27, 2016 at 3:00 PM


Visibility: 30 mi

Pressure: 30.09 "Hg

Humidity: 69%

Dew Point: 64 °F

Location of VancouverLocation

Past Weather in Vancouver — Graph

°F

Vancouver Temperature Yesterday

Maximum temperature yesterday: 72 °F (at 4:00 PM)
Minimum temperature yesterday: 59 °F (at 4:00 AM)
Average temperature yesterday: 66 °F

High & Low Weather Summary for the Past Weeks

 TemperatureHumidityPressure
High75 °F (Jul 18, 4:00 PM)100% (Jul 13, 2:47 AM)30.26 "Hg (Jul 13, 2:47 AM)
Low57 °F (Jul 14, 2:00 AM)47% (Jul 22, 3:00 PM)29.90 "Hg (Jul 17, 5:00 PM)
Average66 °F76%30.09 "Hg
* Reported Jul 12 3:00 PM — Jul 27 3:00 PM, Vancouver, Weather by CustomWeather, © 2016

Note: Actual official high and low records may vary slightly from our data, if they occured in-between our weather recording intervals... More about our weather records

Advertising

Vancouver Weather History for the Previous 24 Hours

Scroll right to see more
 ConditionsComfort  
Time TempWeatherWind HumidityBarometerVisibility
3:00 PM
Wed, Jul 27
75 °FSunny.12 mph69%30.09 "Hg30 mi
2:00 PM72 °FSunny.14 mph73%30.11 "Hg30 mi
1:00 PM72 °FSunny.14 mph73%30.12 "Hg30 mi
12:00 PM72 °FSunny.15 mph73%30.13 "Hg30 mi
11:00 AM72 °FSunny.14 mph73%30.14 "Hg30 mi
10:00 AM70 °FSunny.15 mph73%30.14 "Hg30 mi
9:00 AM68 °FPassing clouds.16 mph78%30.14 "Hg30 mi
8:00 AM66 °FPartly sunny.13 mph83%30.14 "Hg15 mi
7:58 AM66 °FPartly sunny.12 mph83%30.14 "Hg15 mi
7:00 AM63 °FPassing clouds.5 mph83%30.13 "Hg30 mi
6:00 AM61 °FPassing clouds.6 mph88%30.12 "Hg20 mi
5:00 AM59 °FClear.9 mph88%30.11 "Hg30 mi
4:00 AM61 °FClear.7 mph83%30.10 "Hg30 mi
3:00 AM61 °FClear.6 mph83%30.09 "Hg30 mi
2:00 AM61 °FClear.5 mph83%30.09 "Hg30 mi
1:00 AM63 °FClear.5 mph83%30.09 "Hg30 mi
12:00 AM63 °FClear.6 mph83%30.10 "Hg30 mi
11:00 PM
Tue, Jul 26
64 °FClear.8 mph78%30.09 "Hg30 mi
10:00 PM66 °FClear.8 mph73%30.09 "Hg30 mi
9:00 PM70 °FSunny.8 mph64%30.07 "Hg30 mi
8:00 PM72 °FSunny.6 mph69%30.07 "Hg30 mi
7:00 PM72 °FSunny.8 mph69%30.07 "Hg30 mi
6:00 PM72 °FPassing clouds.6 mph73%30.07 "Hg30 mi
5:00 PM72 °FPassing clouds.9 mph73%30.08 "Hg30 mi
4:00 PM72 °FPassing clouds.8 mph78%30.09 "Hg30 mi
Weather by CustomWeather, © 2016

See weather overviewHow to use our weather pages